Hourly Weather Aarle

Today, 28 February, Sunday

Time Temperature Precipitation Wind Pressure Humidity
00:00 +4°C° 0 mm 2 mps 778 mmHg 91%
01:00 +4°C° 0 mm 2 mps 777 mmHg 91%
02:00 +4°C° 0 mm 2 mps 777 mmHg 92%
03:00 +3°C° 0 mm 2 mps 777 mmHg 92%
04:00 +3°C° 0 mm 2 mps 777 mmHg 92%
05:00 +3°C° 0 mm 2 mps 777 mmHg 92%
06:00 +3°C° 0 mm 2 mps 777 mmHg 92%
07:00 +4°C° 0 mm 2 mps 776 mmHg 88%
08:00 +4°C° 0 mm 3 mps 776 mmHg 84%
09:00 +5°C° 0 mm 3 mps 776 mmHg 80%
10:00 +7°C° 0 mm 3 mps 776 mmHg 74%
11:00 +9°C° 0 mm 3 mps 776 mmHg 68%
12:00 +10°C° 0 mm 3 mps 776 mmHg 67%
13:00 +10°C° 0 mm 3 mps 775 mmHg 66%
14:00 +10°C° 0 mm 4 mps 775 mmHg 65%
15:00 +10°C° 0 mm 4 mps 774 mmHg 65%
16:00 +8°C° 0 mm 4 mps 774 mmHg 69%
17:00 +8°C° 0 mm 3 mps 774 mmHg 73%
18:00 +7°C° 0 mm 3 mps 774 mmHg 78%
19:00 +5°C° 0 mm 3 mps 774 mmHg 80%
20:00 +5°C° 0 mm 3 mps 774 mmHg 82%
21:00 +4°C° 0 mm 3 mps 774 mmHg 85%
22:00 +4°C° 0 mm 3 mps 774 mmHg 87%
23:00 +4°C° 0 mm 3 mps 774 mmHg 90%

Tomorrow, 1 March, Monday

Time Temperature Precipitation Wind Pressure Humidity
00:00 +4°C° 0 mm 3 mps 774 mmHg 92%
01:00 +3°C° 0 mm 3 mps 774 mmHg 93%
02:00 +3°C° 0 mm 3 mps 774 mmHg 93%
03:00 +2°C° 0 mm 3 mps 773 mmHg 94%
04:00 +2°C° 0 mm 3 mps 773 mmHg 94%
05:00 +2°C° 0 mm 3 mps 774 mmHg 94%
06:00 +2°C° 0 mm 3 mps 774 mmHg 94%
07:00 +3°C° 0 mm 3 mps 774 mmHg 89%
08:00 +4°C° 0 mm 3 mps 773 mmHg 84%
09:00 +5°C° 0 mm 3 mps 773 mmHg 79%
10:00 +8°C° 0 mm 3 mps 773 mmHg 73%
11:00 +9°C° 0 mm 3 mps 773 mmHg 67%
12:00 +11°C° 0 mm 4 mps 773 mmHg 61%
13:00 +11°C° 0 mm 4 mps 772 mmHg 59%
14:00 +12°C° 0 mm 4 mps 772 mmHg 57%
15:00 +12°C° 0 mm 4 mps 771 mmHg 55%
16:00 +11°C° 0 mm 3 mps 771 mmHg 60%
17:00 +9°C° 0 mm 3 mps 771 mmHg 65%
18:00 +8°C° 0 mm 3 mps 772 mmHg 70%
19:00 +7°C° 0 mm 3 mps 771 mmHg 72%
20:00 +7°C° 0 mm 3 mps 771 mmHg 74%
21:00 +5°C° 0 mm 3 mps 771 mmHg 76%
22:00 +6°C° 0 mm 2 mps 771 mmHg 77%
23:00 +6°C° 0 mm 2 mps 772 mmHg 79%

Day after tomorrow, 2 March, Tuesday

Time Temperature Precipitation Wind Pressure Humidity
00:00 +6°C° 0 mm 2 mps 772 mmHg 80%
01:00 +5°C° 0 mm 2 mps 771 mmHg 81%
02:00 +5°C° 0 mm 2 mps 771 mmHg 83%
03:00 +5°C° 0 mm 2 mps 771 mmHg 84%
04:00 +3°C° 0 mm 3 mps 771 mmHg 85%
05:00 +3°C° 0 mm 3 mps 771 mmHg 85%
06:00 +3°C° 0 mm 3 mps 771 mmHg 86%
07:00 +4°C° 0 mm 3 mps 771 mmHg 81%
08:00 +7°C° 0 mm 3 mps 771 mmHg 76%
09:00 +7°C° 0 mm 4 mps 771 mmHg 70%
10:00 +9°C° 0 mm 3 mps 771 mmHg 66%
11:00 +11°C° 0 mm 3 mps 771 mmHg 61%
12:00 +12°C° 0 mm 3 mps 771 mmHg 57%
13:00 +13°C° 0 mm 3 mps 770 mmHg 56%
14:00 +14°C° 0 mm 2 mps 770 mmHg 55%
15:00 +15°C° 0 mm 2 mps 770 mmHg 54%
16:00 +13°C° 0 mm 2 mps 770 mmHg 59%
17:00 +12°C° 0 mm 2 mps 770 mmHg 65%
18:00 +10°C° 0 mm 2 mps 770 mmHg 70%
19:00 +9°C° 0 mm 2 mps 770 mmHg 73%
20:00 +9°C° 0 mm 2 mps 770 mmHg 76%
21:00 +8°C° 0 mm 2 mps 770 mmHg 78%
22:00 +8°C° 0 mm 2 mps 770 mmHg 81%
23:00 +8°C° 0 mm 2 mps 770 mmHg 83%

3 March, Wednesday

Time Temperature Precipitation Wind Pressure Humidity
00:00 +7°C° 0 mm 2 mps 770 mmHg 86%
01:00 +7°C° 0 mm 2 mps 770 mmHg 86%
02:00 +7°C° 0 mm 2 mps 770 mmHg 87%
03:00 +6°C° 0 mm 2 mps 770 mmHg 87%
04:00 +6°C° 0 mm 2 mps 770 mmHg 88%
05:00 +6°C° 0 mm 2 mps 770 mmHg 88%
06:00 +6°C° 0 mm 2 mps 769 mmHg 89%
07:00 +7°C° 0 mm 2 mps 769 mmHg 85%
08:00 +8°C° 0 mm 2 mps 769 mmHg 81%
09:00 +9°C° 0 mm 2 mps 769 mmHg 77%
10:00 +12°C° 0 mm 2 mps 769 mmHg 72%
11:00 +13°C° 0 mm 2 mps 768 mmHg 67%
12:00 +15°C° 0 mm 2 mps 768 mmHg 62%
13:00 +15°C° 0 mm 2 mps 768 mmHg 61%
14:00 +15°C° 0 mm 2 mps 767 mmHg 60%
15:00 +16°C° 0 mm 2 mps 767 mmHg 59%
16:00 +14°C° 0 mm 2 mps 767 mmHg 65%
17:00 +13°C° 0 mm 2 mps 766 mmHg 71%
18:00 +12°C° 0 mm 2 mps 766 mmHg 77%
19:00 +11°C° 0 mm 1 mps 766 mmHg 79%
20:00 +10°C° 0 mm 1 mps 766 mmHg 80%
21:00 +10°C° 0 mm 1 mps 766 mmHg 82%
22:00 +9°C° 0 mm 1 mps 765 mmHg 82%
23:00 +9°C° 0 mm 1 mps 765 mmHg 82%

4 March, Thursday

Time Temperature Precipitation Wind Pressure Humidity
00:00 +9°C° 0 mm 1 mps 765 mmHg 82%
01:00 +8°C° 0.1 mm 0 mps 764 mmHg 82%
02:00 +8°C° 0.1 mm 0 mps 764 mmHg 82%
03:00 +8°C° 0.1 mm 0 mps 763 mmHg 82%
04:00 +9°C° 0.1 mm 1 mps 763 mmHg 84%
05:00 +8°C° 0.1 mm 1 mps 762 mmHg 86%
06:00 +8°C° 0.1 mm 1 mps 762 mmHg 88%
07:00 +8°C° 0.2 mm 1 mps 762 mmHg 87%
08:00 +7°C° 0.2 mm 2 mps 762 mmHg 86%
09:00 +7°C° 0.2 mm 2 mps 761 mmHg 86%
10:00 +7°C° 0.1 mm 2 mps 761 mmHg 85%
11:00 +7°C° 0.1 mm 3 mps 761 mmHg 84%
12:00 +7°C° 0.1 mm 3 mps 761 mmHg 83%
13:00 +7°C° 0.2 mm 3 mps 761 mmHg 84%
14:00 +6°C° 0.2 mm 4 mps 760 mmHg 85%
15:00 +6°C° 0.2 mm 4 mps 760 mmHg 86%
16:00 +5°C° 0.2 mm 4 mps 760 mmHg 85%
17:00 +5°C° 0.2 mm 4 mps 760 mmHg 84%
18:00 +3°C° 0.2 mm 5 mps 761 mmHg 82%
19:00 +4°C° 0 mm 4 mps 761 mmHg 82%
20:00 +3°C° 0 mm 4 mps 761 mmHg 82%
21:00 +3°C° 0 mm 4 mps 762 mmHg 82%
22:00 +3°C° 0 mm 4 mps 762 mmHg 79%
23:00 +3°C° 0 mm 4 mps 762 mmHg 77%

5 March, Friday

Time Temperature Precipitation Wind Pressure Humidity
00:00 +3°C° 0 mm 4 mps 763 mmHg 74%
01:00 +1°C° 0 mm 4 mps 763 mmHg 74%
02:00 0°C° 0 mm 5 mps 763 mmHg 73%
03:00 0°C° 0 mm 5 mps 764 mmHg 73%
04:00 -1°C° 0 mm 5 mps 764 mmHg 74%
05:00 -1°C° 0 mm 5 mps 765 mmHg 76%
06:00 -1°C° 0 mm 5 mps 765 mmHg 78%
07:00 -1°C° 0 mm 5 mps 766 mmHg 74%
08:00 -1°C° 0 mm 6 mps 767 mmHg 69%
09:00 +1°C° 0 mm 6 mps 767 mmHg 65%
10:00 +2°C° 0 mm 6 mps 768 mmHg 58%
11:00 +2°C° 0 mm 6 mps 768 mmHg 50%
12:00 +3°C° 0 mm 6 mps 768 mmHg 43%
13:00 +3°C° 0 mm 6 mps 768 mmHg 41%
14:00 +4°C° 0 mm 6 mps 769 mmHg 39%
15:00 +5°C° 0 mm 5 mps 769 mmHg 37%
16:00 +3°C° 0 mm 5 mps 769 mmHg 41%
17:00 +1°C° 0 mm 4 mps 769 mmHg 45%
18:00 +1°C° 0 mm 3 mps 770 mmHg 49%
19:00 +1°C° 0 mm 3 mps 770 mmHg 51%
20:00 0°C° 0 mm 3 mps 771 mmHg 52%
21:00 0°C° 0 mm 3 mps 771 mmHg 54%
22:00 -1°C° 0 mm 3 mps 772 mmHg 55%
23:00 -1°C° 0 mm 2 mps 772 mmHg 56%
Show more

We Need Your Consent

Meteoprog and our Service Providers may store and access personal data such as cookies, device identifiers or other similar technologies on your device and process such data to personalise content and ads, as well as provide social media features and to analyse the traffic.

  • Store and/or access information on your device

    Cookies, device identifiers or other information can be stored or accessed on your device for the purposes indicated above.

  • Personalised ads and content, ad and content measurement, audience insights, and products development

    Ads and content can be personalised based on a profile. More data can be added to better personalise ads and content. Ad and content performance can be measured. Insights about the audience who saw the ads and content can be derived. Such data can be used to develop or improve user’s experience, systems and software.

By clicking ‘I Agree’ you will allow the use of indicated cookies, device identifiers, web beacons or other similar technologies. Your settings can be changed in the browser on your device.

For certain purposes, legitimate interests may be relied on, rather than consent. You can read more about this in our Privacy and Cookie Policy.